Mount Pleasant, MI

6:47 AM EDT on April 24, 2018 (GMT -0400)
Mount Pleasant Municipal

Weather History for KMOP - May, 2013

Change the Weather History Date:

Thursday, May 16, 2013

  Actual Average (KAMN) Record (KAMN)
Temperature  
Mean Temperature 64 °F -  
Max Temperature 77 °F 70 °F 91 °F (1962)
Min Temperature 48 °F 45 °F 30 °F (1997)
Degree Days  
Heating Degree Days 2    
Growing Degree Days 14 (Base 50)    
Moisture  
Dew Point 37 °F    
Average Humidity 33    
Maximum Humidity 72    
Minimum Humidity 20    
Precipitation  
Precipitation 0.00 in - - ()
Sea Level Pressure  
Sea Level Pressure 29.94 in    
Wind  
Wind Speed 6 mph (North)    
Max Wind Speed 13 mph    
Max Gust Speed 18 mph    
Visibility 10 miles    
Events      
Averages and records for this station are not official NWS values.
T = Trace of Precipitation, MM = Missing Value Source: NWS Daily Summary

Daily Weather History Graph

Daily Weather History Graph

Search for Another Location

Airport or City:

Astronomy

May. 16, 2013 Rise Set
Actual Time 6:12 AM EDT 8:58 PM EDT
Civil Twilight 5:39 AM EDT 9:31 PM EDT
Nautical Twilight 4:57 AM EDT 10:14 PM EDT
Astronomical Twilight 4:09 AM EDT 11:02 PM EDT
Moon 11:48 AM EDT (5/16) 1:16 AM EDT (5/16)
Length of Visible Light 15h 52m
Length of Day
14h 45m
Waxing Crescent, 35% of the Moon is Illuminated
May 16
Waxing Crescent
May 18
First Quarter
May 25
Full
May 31
Last Quarter
Jun 8
New

Hourly Weather History & Observations

Time (EDT) Temp. Dew Point Humidity Pressure Visibility Wind Dir Wind Speed Gust Speed Precip Events Conditions
1:22 AM - - N/A% - - North - - N/A   Unknown
1:39 AM - - N/A% - - North - - N/A   Unknown
1:59 AM - - N/A% - - North - - N/A   Unknown
2:19 AM - - N/A% - - North - - N/A   Unknown
2:39 AM - - N/A% - - North - - N/A   Unknown
2:59 AM - - N/A% - - North - - N/A   Unknown
3:19 AM - - N/A% - - North - - N/A   Unknown
3:39 AM - - N/A% - - North - - N/A   Unknown
3:43 AM - - N/A% - - North - - N/A   Unknown
4:20 AM - - N/A% - - North - - N/A   Unknown
4:39 AM - - N/A% - - North - - N/A   Unknown
4:54 AM - - N/A% - - North - - N/A   Unknown
5:19 AM - - N/A% - - North - - N/A   Unknown
5:39 AM - - N/A% - - North - - N/A   Unknown
5:54 AM - - N/A% - - North - - N/A   Unknown
7:11 AM - - N/A% - - North - - N/A   Unknown
7:34 AM - - N/A% - - North - - N/A   Unknown
7:39 AM - - N/A% - - North - - N/A   Unknown
7:56 AM - - N/A% - - North - - N/A   Unknown
8:19 AM - - N/A% - - North - - N/A   Unknown
8:39 AM - - N/A% - - North - - N/A   Unknown
8:59 AM - - N/A% 29.87 in - WNW 3.5 mph - N/A   Unknown
9:19 AM - - N/A% - 10.0 mi North - - N/A   Unknown
9:39 AM 65.3 °F 45.0 °F 48% 29.89 in 10.0 mi WNW 3.5 mph - N/A   Unknown
10:00 AM 67.1 °F 44.1 °F 43% 29.89 in 10.0 mi WNW 3.5 mph - N/A   Clear
10:20 AM 68.7 °F 42.1 °F 38% 29.89 in 10.0 mi NNW 3.5 mph - N/A   Clear
10:40 AM 70.0 °F 41.2 °F 35% 29.89 in - NNW 4.6 mph - N/A   Unknown
10:55 AM 70.9 °F 40.5 °F 33% 29.89 in 10.0 mi North 6.9 mph - N/A   Unknown
11:15 AM 72.1 °F 40.5 °F 32% 29.90 in 10.0 mi NNW 5.8 mph - N/A   Clear
11:35 AM 73.9 °F 39.6 °F 29% 29.90 in 10.0 mi North 5.8 mph - N/A   Clear
11:55 AM 74.8 °F 38.8 °F 27% 29.90 in 10.0 mi North 6.9 mph - N/A   Clear
12:14 PM 75.9 °F 36.1 °F 24% 29.91 in 10.0 mi NW 5.8 mph - N/A   Clear
12:35 PM 76.6 °F 36.7 °F 24% 29.90 in 10.0 mi NW 8.1 mph 17.3 mph N/A   Clear
12:55 PM 76.8 °F 36.9 °F 24% 29.90 in 10.0 mi NW 8.1 mph 17.3 mph N/A   Clear
1:14 PM 76.8 °F 36.3 °F 23% 29.90 in 10.0 mi North 8.1 mph - N/A   Clear
1:35 PM 77.0 °F 36.3 °F 23% 29.90 in 10.0 mi North 11.5 mph 17.3 mph N/A   Clear
1:55 PM 77.2 °F 37.2 °F 24% 29.89 in 10.0 mi North 12.7 mph 18.4 mph N/A   Clear
2:14 PM 77.0 °F 36.5 °F 23% 29.89 in 10.0 mi NNW 8.1 mph 18.4 mph N/A   Clear
2:35 PM 77.2 °F 36.5 °F 23% 29.90 in 10.0 mi North 10.4 mph 17.3 mph N/A   Clear
3:14 PM 77.9 °F 36.9 °F 23% 29.90 in 10.0 mi North 9.2 mph 17.3 mph N/A   Clear
3:35 PM 77.5 °F 35.6 °F 22% 29.91 in 10.0 mi North 11.5 mph 17.3 mph N/A   Clear
3:55 PM 77.4 °F 35.1 °F 22% 29.91 in 10.0 mi NNW 9.2 mph 17.3 mph N/A   Clear
4:14 PM 77.5 °F 34.7 °F 21% 29.91 in 10.0 mi North 8.1 mph - N/A   Clear
4:35 PM 77.0 °F 35.2 °F 22% 29.91 in 10.0 mi NNW 8.1 mph 18.4 mph N/A   Clear
4:55 PM 77.0 °F 34.7 °F 22% 29.91 in 10.0 mi North 8.1 mph - N/A   Clear
5:14 PM 76.6 °F 34.3 °F 21% 29.91 in 10.0 mi North 9.2 mph - N/A   Clear
5:35 PM 75.2 °F 34.0 °F 22% 29.92 in 10.0 mi North 9.2 mph 16.1 mph N/A   Clear
6:14 PM 74.5 °F 31.5 °F 21% 29.92 in 10.0 mi NNW 10.4 mph 16.1 mph N/A   Clear
6:35 PM 74.3 °F 31.5 °F 21% 29.93 in 10.0 mi NNW 6.9 mph - N/A   Clear
6:55 PM 73.6 °F 31.3 °F 21% 29.93 in 10.0 mi North 8.1 mph - N/A   Clear
7:14 PM 73.0 °F 29.1 °F 20% 29.93 in 10.0 mi NNE 9.2 mph - N/A   Clear
7:35 PM 72.3 °F 29.3 °F 20% 29.94 in 10.0 mi North 6.9 mph - N/A   Clear
7:55 PM 70.9 °F 29.3 °F 21% 29.95 in 10.0 mi North 6.9 mph - N/A   Clear
8:14 PM 70.0 °F 29.8 °F 23% 29.96 in 10.0 mi North 6.9 mph - N/A   Clear
8:35 PM 67.3 °F 28.2 °F 23% 29.97 in 10.0 mi North 8.1 mph - N/A   Clear
8:55 PM 65.3 °F 29.8 °F 26% 29.98 in 10.0 mi NNE 4.6 mph - N/A   Clear
9:15 PM 61.0 °F 41.4 °F 48% 30.00 in 10.0 mi East 8.1 mph - N/A   Clear
9:35 PM 57.7 °F 41.0 °F 54% 30.02 in 10.0 mi East 10.4 mph - N/A   Clear
9:55 PM 55.8 °F 40.3 °F 56% 30.03 in 10.0 mi ENE 9.2 mph - N/A   Clear
10:15 PM 54.0 °F 39.9 °F 59% 30.05 in 10.0 mi ENE 6.9 mph - N/A   Clear
10:35 PM 52.9 °F 39.4 °F 60% 30.05 in 10.0 mi NE 4.6 mph - N/A   Clear
10:55 PM 52.3 °F 39.6 °F 62% 30.06 in 10.0 mi NE 4.6 mph - N/A   Clear
11:15 PM 51.4 °F 39.9 °F 65% 30.06 in 10.0 mi NNE 5.8 mph - N/A   Clear
11:35 PM 50.4 °F 40.5 °F 69% 30.06 in 10.0 mi NNE 3.5 mph - N/A   Clear
11:55 PM 48.9 °F 40.3 °F 72% 30.07 in 10.0 mi NNE 4.6 mph - N/A   Clear